Location: Unspecified
(33.6682°S, 0.0000°E)
Time: 02:46:11
(UTC+00:00)

Vanguard 1 - Pass Details

Date: 29 June 2019
Orbit: 653 x 3830 km, 34.3° (Epoch: 22 July)

Event Time Altitude Azimuth Distance (km) Brightness Sun altitude
Rises 17:54:49 0° 257° (WSW) 4,421 14.4 -10.9°
Reaches altitude 10° 17:57:13 10° 259° (W) 3,733 14.0 -11.4°
Maximum altitude 18:07:24 68° 339° (NNW) 2,454 12.2 -13.4°
Drops below altitude 10° 18:26:14 10° 57° (ENE) 6,455 13.8 -17.1°
Sets 18:31:58 0° 58° (ENE) 7,750 14.3 -18.3°
